Regional Weather Roundup
Issued by NWS

Home | Current Version | Previous Version | Text Only | Print | Product List | Glossary Off
Versions: 1 2 3 4 5 6 7 8 9 10 11 12 13 14 15 16 17 18 19 20 21 22 23 24 25 26 27 28 29 30 31 32 33 34 35 36 37 38 39 40 41 42 43 44 45 46 47 48 49 50

000
ASUS43 KIND 240209
RWRIN

WEATHER ROUNDUP FOR INDIANA
NATIONAL WEATHER SERVICE INDIANAPOLIS IN
1000 PM EDT WED JUL 23 2014

NOTE: "FAIR" INDICATES FEW OR NO CLOUDS BELOW 12,000 FEET WITH NO
SIGNIFICANT WEATHER AND/OR OBSTRUCTIONS TO VISIBILITY.

* - STATION DOES NOT REPORT WEATHER SUCH AS PRECIPITATION OR FOG.

+ - STATION NOT QUALITY CONTROLLED BY THE NATIONAL WEATHER SERVICE.
    USE DATA WITH CAUTION...ESPECIALLY DEWPOINT AND RELATIVE
    HUMIDITY OBSERVATIONS.

INZ001>003-010>013-019-020-240300-
NORTHWEST INDIANA

CITY           SKY/WX    TMP DP  RH WIND       PRES   REMARKS
GARY /AIRPORT/ PTCLDY    64  54  68 N10       30.13F
KNOX *+        CLEAR     57  52  81 N6        30.10S
LA PORTE +     CLEAR     59  54  82 N10       30.11F
MICHIGAN CITY+ CLEAR     59  52  77 N6        30.12S
MONTICELLO +   CLEAR     60  52  74 N7        30.09R
RENSSELAER +   CLEAR     61  54  77 N5        30.11S
VALPARAISO     CLEAR     59  52  77 N6        30.12S

$$

LMZ046-743>745-240300-
SOUTHERN LAKE MICHIGAN

STATION/POSITION TIME  TEMP WIND        PRES
                       AIR  DIR/SP/G
                 (UTC) (F)  (DEG/KT/KT) (MB)
MICHIGAN CITY    0200   63  360/ 21/ 24   N/A

$$

INZ004-005-014>016-021>024-240300-
NORTH CENTRAL INDIANA

CITY           SKY/WX    TMP DP  RH WIND       PRES   REMARKS
GOSHEN         PTCLDY    64  57  78 N14       30.09R
LOGANSPORT +   PTCLDY    61  54  77 N8        30.10R
PERU/GRISSOM   CLEAR     64  59  84 N10       30.08R
ROCHESTER +    CLEAR     63  55  77 N6        30.10R
SOUTH BEND     CLEAR     61  54  77 N7        30.11R
WARSAW +       PTCLDY    63  57  82 NW6       30.09R

$$

INZ006>009-017-018-025>027-240300-
NORTHEAST INDIANA

CITY           SKY/WX    TMP DP  RH WIND       PRES   REMARKS
ANGOLA *+      CLOUDY    68  57  68 N5        30.08R
AUBURN +       CLEAR     66  54  63 N3        30.08R
FORT WAYNE     MOCLDY    69  56  62 N6        30.07R
HUNTINGTON +   CLOUDY    68  58  69 N5        30.06R

$$

INZ028-029-035-036-043>045-051>053-240300-
WEST CENTRAL INDIANA

CITY           SKY/WX    TMP DP  RH WIND       PRES   REMARKS
GREENCASTLE +  CLEAR     64  55  72 N8        30.08R
LAFAYETTE      CLEAR     62  49  62 N7        30.09R
TERRE HAUTE    CLEAR     65  54  67 N10       30.07R

$$

INZ030>032-037>040-046>048-054>057-064-065-240300-
CENTRAL INDIANA

CITY           SKY/WX    TMP DP  RH WIND       PRES   REMARKS
CP ATTERBURY + CLOUDY    70  64  83 CALM      30.05R
INDIANAPOLIS   PTCLDY    68  58  70 N13       30.05R
-EAGLE CREEK   CLEAR     67  58  72 N13G18    30.06R
KOKOMO *+      CLEAR     64  57  77 N12       30.08R
MARION +       CLOUDY    67  58  72 N5        30.07R
MT COMFORT *+  MOCLDY    66 N/A N/A N6        30.05S
SHELBYVILLE    CLOUDY    71  66  84 N5        30.04R
ZIONSVILLE +   CLEAR     65  57  75 N12G18    30.08R

$$

INZ033-034-041-042-049-050-058-059-240300-
EAST CENTRAL INDIANA

CITY           SKY/WX    TMP DP  RH WIND       PRES   REMARKS
MUNCIE         PTCLDY    66  61  84 N7        30.05R

$$

INZ060-061-067>069-081>083-085>088-240300-
SOUTHWEST INDIANA

CITY           SKY/WX    TMP DP  RH WIND       PRES   REMARKS
EVANSVILLE     MOCLDY    74  67  78 N8        30.03R
HUNTINGBURG *+ CLOUDY    73  66  78 NE7       30.03R
WASHINGTON +   CLOUDY    72  63  75 N13G21    30.03R

$$

INZ062-063-066-070>080-084-089>092-240300-
SOUTH CENTRAL AND SOUTHEAST INDIANA

CITY           SKY/WX    TMP DP  RH WIND       PRES   REMARKS
BEDFORD +      CLOUDY    72  64  78 N7        30.03
BLOOMINGTON    CLOUDY    71  60  68 N9        30.05R

$$



USA.gov is the U.S. government's official web portal to all federal, state and local government web resources and services.